Regional Weather Roundup
Issued by NWS Green Bay, WI

Home | Current Version | Previous Version | Text Only | Print | Product List | Glossary On
Versions: 1 2 3 4 5 6 7 8 9 10 11 12 13 14 15 16 17 18 19 20 21 22 23 24 25 26 27 28 29 30 31 32 33 34 35 36 37 38 39 40 41 42 43 44 45 46 47 48 49 50
000
ASUS43 KGRB 240311
RWRGRB

NORTH-CENTRAL AND NORTHEAST WISCONSIN REGIONAL WEATHER ROUNDUP
NATIONAL WEATHER SERVICE GREEN BAY WI
900 PM CST THU FEB 23 2017

WIZ005-009-010>012-018-019-240400-
NORTH CENTRAL WISCONSIN

CITY           SKY/WX    TMP DP  RH WIND       PRES   REMARKS
IRONWOOD       CLOUDY    27  25  92 NW6       29.96S
MANITOWISH WTR CLOUDY    26  26  99 CALM      29.93R
ARBOR VITAE    CLOUDY    29  25  85 N3          N/A
EAGLE RIVER    CLOUDY    28  22  79 N9        29.92R
LAND O LAKES   CLOUDY    27  24  87 N3        29.93S
RHINELANDER    CLOUDY    31  25  78 VRB5      29.92R
PHILLIPS       CLOUDY    29  25  84 N9        29.91S
ANTIGO         CLOUDY    32  27  80 N7        29.90R
TOMAHAWK       CLOUDY    30  24  79 N7        29.91F
MERRILL        NOT AVBL
$$

WIZ013-073-240400-
NORTHEAST WISCONSIN

CITY           SKY/WX    TMP DP  RH WIND       PRES   REMARKS
IRON MOUNTAIN  CLOUDY    32  23  69 N5        29.93R
MARINETTE      CLOUDY    34  27  75 NE8       29.95R
OCONTO         CLOUDY    34  25  71 NE7       29.92S
$$

WIZ017-030-035>037-045-240400-
CENTRAL WISCONSIN

CITY           SKY/WX    TMP DP  RH WIND       PRES   REMARKS
MEDFORD        CLOUDY    32  25  77 N15       29.86F
WAUSAU         CLOUDY    36  25  64 NE8       29.87R
MOSINEE        FLURRIES  36  27  69 N10       29.88S
MARSHFIELD     CLOUDY    37  26  64 NE9       29.84F
WISC RAPIDS    CLOUDY    40  26  57 NE7       29.87R
STEVENS POINT  CLOUDY    36  27  70 NE9       29.87F
WAUPACA        CLOUDY    38  30  74 NE7       29.89R
SHAWANO        CLOUDY    36  28  72 NE6       29.92R
CLINTONVILLE   CLOUDY    34  27  75 NE7       29.91R
WAUTOMA        CLOUDY    36  31  82 NE9       29.88R
$$

WIZ038-039-048-051-240400-
FOX VALLEY

CITY           SKY/WX    TMP DP  RH WIND       PRES   REMARKS
NWS GREEN BAY  CLOUDY    36  29  75 NE12      29.90S
APPLETON       CLOUDY    36  25  64 NE16      29.87S
OSHKOSH        CLOUDY    35  28  75 NE12      29.87R
FOND DU LAC    FLURRIES  35  27  72 NE10      29.86R
$$

WIZ022-050-052-240400-
EAST CENTRAL WISCONSIN

CITY           SKY/WX    TMP DP  RH WIND       PRES   REMARKS
EPHRAIM        CLOUDY    33  25  72 NE7       29.92S
WASHINGTON ISL MOCLDY    32  23  69 NE7       29.94S
STURGEON BAY   CLOUDY    35  26  69 NE8       29.93R
MANITOWOC      LGT RAIN  36  30  79 NE12G18   29.88S
SHEBOYGAN      MIX PCPN  35  30  82 NE21G28   29.84F
$$

LMZ563-521-522-541>543-240400-
LAKESHORE

STATION/POSITION TIME  TEMP    WIND        PRES    VSBY  WAVE
                       AIR SEA DIR/SP/G                  HT/PER
                 (UTC) (F)     (DEG/KT/KT) (MB)    (MI)  (FT/S)
SHEBOYGAN LKSHOR 0300   35      40/ 24/ 26 1011.3F
KEWAUNEE LKSHORE 0248   36      40/ 13/ 17 1012.3R
NORTHPORT PIER   0240   33      40/ 10/ 13 1014.2R
CHAMBERS ISLAND  0240   33      50/ 12/ 14 1013.2S
MENOMINEE LKSHOR 0248   34      30/ 10/ 12 1013.0R
$$




USA.gov is the U.S. government's official web portal to all federal, state and local government web resources and services.